Starlink 4497

operational
NORAD ID: 53411 Int'l Des: 2022-097 Owner: SPXS Country: US Constellation: starlink
LEOCIRCULAR

About Starlink 4497

Description loading...

Live Position

Loading 3D Globe...

Upcoming Passes

Altitude History

Altitude vs Time

uPlot chart will show altitude changes over time

Two-Line Element Set

1 53411U 22097Z 25305.34372851 .00000747 00000-0 65045-4 0 9994
2 53411 53.2175 330.2891 0001375 89.1083 271.0067 15.08836960179275
Epoch: Nov 1, 2025 • Age: 24 hours

Current Status

Altitude 543.1 km
Velocity 7.59 km/s
Sub-Earth Point -11.45°S, 154.83°E
Launch Date Aug 10, 2022
Age 3.2 years
Type internet

Technical Details

Classification Payload
Mass 297.00 kg
Dry Mass 275.00 kg
Total Mass 297.00 kg
Length 0.20 m
Diameter 2.80 m
Span 9.00 m
Shape Box + pan
Manufacturer SPXS
Bus Type Starlink
Phase Status In Orbit
Owner/State SPXS/US

Large Constellations

Loading constellations...